Location: Munderkingen
(48.2395°N, 9.6433°E)
Time: 01:33:10
(UTC+02:00)

ISS - Visible Passes

Search period start: 22 October 2019 00:00
Search period end: 31 October 2019 23:00
Orbit: 411 x 421 km, 51.6° (Epoch: 21 October)

Date Brightness Start Highest point End Pass type
(mag) Time Alt. Az. Time Alt. Az. Time Alt. Az.
24 Oct -0.8 06:49:39 10° S 06:51:40 15° SE 06:53:42 10° E visible
26 Oct -2.1 06:47:49 10° SSW 06:50:52 32° SE 06:53:56 10° E visible
27 Oct -1.5 05:00:46 16° S 05:02:23 22° SE 05:05:03 10° E visible
28 Oct -0.8 04:14:37 13° ESE 04:14:37 13° ESE 04:15:49 10° ESE visible
28 Oct -3.5 05:47:32 15° SW 05:50:12 69° SSE 05:53:34 10° ENE visible
29 Oct -3.0 05:01:15 44° S 05:01:37 46° SSE 05:04:52 10° ENE visible
30 Oct -1.0 04:14:49 19° E 04:14:49 19° E 04:16:04 10° E visible
30 Oct -3.7 05:47:44 23° W 05:49:38 68° NNW 05:53:00 10° ENE visible
31 Oct -3.7 05:01:13 74° ENE 05:01:13 74° ENE 05:04:20 10° ENE visible
